Probability
3 0 0 0 0 0 0 0 0 0 0 0 0 0 0 0 0 0 0 0 0 0 3 6 13 13 16 23 23 26 29 29 26 26 23 23 19 19 23 19 19 23 19 19 16 13 13 13 10
0 0 0 0 0 0 0 0 0 0 0 0 0 0 0 0 0 0 0 0 0 0 3 6 13 16 13 23 29 23 26 26 26 26 23 23 23 23 19 19 19 19 19 23 16 13 13 10 10
0 0 0 0 0 0 0 0 0 0 0 0 0 0 0 0 0 0 0 0 0 0 6 6 13 16 16 19 26 23 23 23 26 26 16 13 19 19 13 13 10 16 16 23 19 13 13 13 13
0 0 0 0 0 0 0 0 0 0 0 0 0 0 0 0 0 0 0 0 3 3 6 6 13 19 16 16 19 23 19 19 19 19 19 16 19 19 16 13 13 16 19 19 16 13 13 13 13
0 0 0 0 0 0 0 0 0 0 0 0 0 0 0 0 0 0 0 3 3 3 6 6 10 16 16 19 16 16 13 16 13 16 16 16 16 16 16 16 13 16 13 13 13 16 13 10 10
0 0 0 0 0 0 0 0 0 0 0 0 0 0 0 0 0 0 0 3 3 3 6 6 13 16 19 19 16 13 13 13 16 16 16 13 13 13 13 16 16 13 13 10 13 13 13 10 10
0 0 0 0 0 0 0 0 0 0 0 0 0 0 0 0 0 0 0 3 3 3 6 6 6 10 10 13 16 16 10 13 13 13 13 13 16 13 10 6 13 10 10 6 6 10 10 10 10
0 0 0 0 0 0 0 0 0 0 0 0 0 0 0 0 0 0 0 3 3 3 6 6 10 10 10 13 6 6 6 10 10 10 6 3 3 6 6 6 6 6 10 10 10 10 10 6 6
0 0 0 0 0 0 0 0 0 0 0 0 0 0 0 0 0 0 0 0 3 3 6 6 6 10 10 10 6 6 6 6 6 3 3 3 3 3 6 3 6 3 6 10 10 10 6 3 0
0 0 0 0 0 0 0 0 0 0 0 0 0 0 0 0 0 0 0 0 3 3 6 6 6 6 10 6 6 10 10 6 6 6 3 3 3 6 3 3 3 3 3 6 10 6 3 0 0
0 0 0 0 0 0 0 0 0 0 0 0 0 0 0 0 0 0 0 0 0 3 6 6 6 6 10 6 6 6 6 10 6 6 3 3 3 6 3 3 3 3 0 3 3 3 3 3 3
0 0 0 0 0 0 0 0 0 0 0 0 0 0 0 0 0 0 0 0 0 0 0 6 6 3 3 6 6 6 3 3 6 6 3 3 3 3 3 3 3 6 6 6 3 3 3 3 3
0 0 0 0 0 0 0 0 0 0 0 0 0 0 0 0 0 0 0 0 0 0 0 3 3 0 3 3 3 3 3 3 3 6 3 3 3 3 3 3 3 3 3 3 3 3 3 3 0
0 0 0 0 0 0 0 0 0 0 0 0 0 0 0 0 0 0 0 0 0 0 0 0 3 3 0 3 3 3 3 3 3 3 3 3 3 3 3 3 3 3 3 3 3 3 3 3 3
0 0 0 0 0 0 0 0 0 0 0 0 0 0 0 0 0 0 0 0 0 0 0 0 3 3 0 0 3 3 3 3 3 3 3 3 3 3 3 3 3 3 3 3 3 3 3 3 0
0 0 0 0 0 0 0 0 0 0 0 0 0 0 0 0 0 0 0 0 0 0 0 0 0 3 0 0 0 3 0 0 3 3 3 3 3 3 3 3 3 3 3 3 3 3 0 0 0
0 0 0 0 0 0 0 0 0 0 0 0 0 0 0 0 0 0 0 0 0 0 0 0 0 0 0 0 0 0 0 0 0 3 3 3 3 3 3 3 3 3 3 3 3 3 0 0 0
0 0 0 0 0 0 0 0 0 0 0 0 0 0 0 0 0 0 0 0 0 0 0 0 0 0 0 0 0 0 0 3 3 0 0 0 0 3 3 3 3 3 3 0 3 3 0 0 0
0 0 0 0 0 0 0 0 0 0 0 0 0 0 0 0 0 0 0 0 0 0 0 0 0 0 0 0 0 0 0 0 0 0 0 0 0 0 3 3 3 3 0 0 0 0 0 0 0
0 0 0 0 0 0 0 0 0 0 0 0 0 0 0 0 0 0 0 0 0 0 0 0 0 0 0 0 0 0 0 0 0 0 0 0 0 0 0 3 0 0 0 0 0 0 0 0 0
0 0 0 0 0 0 0 0 0 0 0 0 0 0 0 0 0 0 0 0 0 0 0 0 0 0 0 0 0 0 0 0 0 0 0 0 0 0 0 0 0 0 0 0 0 0 0 0 0
0 0 0 0 0 0 0 0 0 0 0 0 0 0 0 0 0 0 0 0 0 0 0 0 0 0 0 0 0 0 0 0 0 0 0 0 0 0 0 0 0 0 0 0 0 3 0 0 0
0 0 0 0 0 0 0 0 0 0 0 0 0 0 0 0 0 0 0 0 0 0 0 0 0 0 0 0 0 0 0 0 0 0 0 0 0 0 0 0 0 0 0 0 3 3 3 0 0
0 0 0 0 0 0 0 0 0 0 0 0 0 0 0 0 0 0 0 0 0 0 0 0 0 0 0 0 0 0 0 0 0 0 0 0 0 0 0 0 0 0 0 0 3 3 3 0 0
0 0 0 0 0 0 0 0 0 0 0 0 0 0 0 0 0 0 0 0 0 0 0 0 0 0 0 0 0 0 0 0 0 0 0 0 0 0 0 0 0 0 0 0 3 3 3 0 0
0 0 0 0 0 0 0 0 0 0 0 0 0 0 0 0 0 0 0 0 0 0 0 0 0 0 0 0 0 0 0 0 0 0 0 0 0 0 0 0 0 0 0 0 3 3 3 0 0
0 0 0 0 0 0 0 0 0 0 0 0 0 0 0 0 0 0 0 0 0 0 0 0 0 0 0 0 0 0 0 0 0 0 0 0 0 0 0 0 0 0 0 0 0 0 0 0 0
0 0 0 0 0 0 0 0 0 0 0 0 0 0 0 0 0 0 0 0 0 0 0 0 0 0 0 0 0 0 0 0 0 0 0 0 0 0 0 0 0 0 0 0 0 0 0 0 0
0 0 0 0 0 0 0 0 0 0 0 0 0 0 0 0 0 0 0 0 0 0 0 0 0 0 0 0 0 0 0 0 0 0 0 0 0 0 0 0 0 0 0 0 0 0 0 0 0
0 0 0 0 0 0 0 0 0 0 0 0 0 0 0 0 0 0 0 0 0 0 0 0 0 0 0 0 0 0 0 0 0 0 0 0 0 0 0 0 0 0 0 0 0 0 0 0 0
Height
5812 5813 5813 5814 5814 5814 5815 5816 5816 5817 5817 5818 5819 5820 5822 5824 5826 5829 5828 5828 5830 5831 5832 5834 5835 5836 5837 5839 5840 5841 5843 5843 5845 5845 5846 5847 5848 5849 5850 5851 5851 5852 5853 5854 5854 5855 5856 5856 5856
5808 5809 5809 5810 5810 5810 5811 5811 5811 5812 5812 5813 5814 5815 5817 5818 5820 5821 5822 5824 5825 5827 5828 5830 5831 5833 5834 5835 5836 5838 5839 5840 5841 5842 5843 5844 5845 5846 5847 5848 5848 5849 5850 5851 5851 5852 5853 5854 5854
5804 5804 5805 5805 5805 5806 5806 5806 5806 5806 5807 5808 5809 5810 5811 5813 5814 5816 5817 5819 5821 5822 5824 5825 5827 5829 5830 5831 5832 5834 5835 5836 5837 5838 5839 5840 5842 5843 5844 5844 5845 5846 5847 5848 5849 5850 5850 5851 5852
5800 5800 5800 5800 5800 5800 5800 5800 5800 5801 5801 5802 5803 5805 5806 5808 5809 5811 5812 5814 5815 5817 5819 5820 5822 5824 5825 5827 5828 5829 5831 5832 5833 5834 5835 5837 5838 5839 5840 5841 5842 5843 5844 5845 5845 5846 5847 5848 5849
5795 5795 5794 5794 5795 5795 5794 5794 5795 5795 5795 5796 5797 5798 5800 5801 5802 5804 5806 5808 5810 5811 5813 5815 5817 5818 5820 5822 5823 5825 5826 5828 5829 5830 5831 5832 5834 5835 5836 5837 5838 5839 5840 5841 5842 5843 5844 5845 5846
5790 5789 5789 5789 5789 5789 5789 5789 5789 5789 5789 5790 5791 5792 5793 5794 5796 5798 5800 5801 5803 5805 5807 5809 5811 5813 5814 5816 5818 5819 5821 5823 5824 5825 5826 5828 5829 5830 5831 5832 5833 5835 5836 5837 5838 5839 5840 5841 5842
5785 5784 5783 5783 5783 5783 5783 5782 5783 5783 5783 5783 5783 5785 5787 5788 5789 5791 5793 5795 5796 5799 5801 5803 5805 5807 5808 5810 5812 5813 5815 5817 5819 5820 5821 5823 5824 5825 5826 5828 5829 5830 5831 5833 5834 5835 5836 5837 5838
5779 5778 5777 5777 5776 5776 5776 5775 5775 5775 5775 5776 5776 5777 5779 5781 5782 5783 5785 5788 5790 5791 5794 5796 5798 5800 5802 5804 5805 5807 5809 5811 5813 5814 5816 5817 5819 5820 5821 5822 5824 5826 5827 5828 5829 5830 5832 5833 5834
5773 5773 5771 5771 5770 5770 5768 5768 5768 5768 5768 5768 5768 5769 5771 5772 5773 5775 5778 5780 5782 5784 5786 5789 5791 5793 5795 5797 5799 5801 5803 5805 5806 5808 5810 5811 5813 5814 5816 5817 5819 5820 5821 5823 5824 5825 5827 5828 5829
5767 5766 5765 5764 5763 5762 5761 5761 5761 5760 5760 5760 5759 5760 5761 5763 5765 5767 5769 5772 5774 5776 5779 5781 5783 5786 5788 5790 5792 5794 5796 5798 5800 5801 5803 5805 5806 5808 5810 5811 5813 5814 5815 5817 5818 5820 5821 5823 5824
5761 5760 5759 5758 5756 5756 5755 5754 5753 5753 5752 5752 5751 5751 5752 5754 5756 5757 5760 5762 5765 5768 5770 5773 5775 5777 5780 5782 5785 5787 5789 5791 5793 5795 5796 5798 5800 5801 5803 5805 5806 5808 5809 5811 5812 5814 5816 5817 5819
5755 5754 5752 5751 5750 5749 5748 5747 5746 5745 5745 5744 5743 5743 5743 5745 5746 5748 5750 5753 5756 5759 5762 5764 5767 5769 5771 5774 5776 5779 5781 5783 5785 5787 5789 5791 5793 5795 5796 5798 5800 5801 5803 5804 5806 5808 5809 5811 5813
5750 5748 5746 5744 5743 5742 5741 5740 5738 5738 5737 5735 5734 5734 5735 5736 5737 5739 5741 5743 5746 5749 5752 5755 5758 5760 5763 5765 5768 5770 5773 5775 5777 5779 5782 5784 5785 5787 5789 5791 5793 5794 5796 5798 5799 5801 5803 5804 5806
5744 5742 5740 5738 5736 5735 5734 5733 5731 5730 5729 5728 5727 5726 5726 5726 5728 5730 5732 5733 5736 5740 5743 5746 5748 5751 5754 5756 5758 5761 5764 5766 5769 5771 5773 5775 5778 5779 5781 5783 5785 5787 5789 5790 5792 5794 5796 5797 5799
5737 5735 5733 5731 5729 5728 5727 5726 5724 5722 5720 5719 5718 5718 5717 5718 5719 5721 5722 5724 5727 5730 5733 5736 5739 5741 5744 5746 5749 5752 5755 5757 5760 5762 5764 5767 5769 5771 5773 5775 5777 5779 5781 5783 5785 5786 5788 5790 5791
5731 5728 5727 5725 5723 5721 5720 5719 5717 5714 5712 5711 5710 5709 5709 5710 5711 5712 5713 5715 5718 5720 5723 5726 5729 5731 5734 5737 5739 5742 5745 5748 5750 5753 5755 5758 5760 5762 5764 5766 5768 5770 5772 5775 5777 5778 5780 5781 5783
5724 5721 5719 5718 5715 5713 5711 5710 5709 5706 5704 5703 5702 5702 5701 5701 5702 5703 5704 5706 5709 5711 5713 5716 5719 5721 5724 5726 5729 5732 5735 5737 5740 5743 5745 5748 5750 5752 5755 5757 5759 5761 5763 5765 5768 5769 5771 5773 5775
5717 5714 5712 5710 5707 5705 5703 5703 5701 5698 5697 5696 5695 5694 5693 5693 5694 5695 5695 5697 5699 5701 5704 5706 5708 5711 5713 5716 5718 5721 5724 5726 5729 5732 5734 5737 5739 5742 5745 5747 5749 5752 5754 5756 5758 5760 5762 5764 5766
5709 5707 5704 5702 5699 5697 5695 5694 5693 5691 5689 5688 5686 5685 5685 5686 5686 5686 5687 5688 5690 5692 5694 5696 5698 5700 5703 5705 5707 5710 5712 5715 5718 5721 5723 5726 5728 5731 5734 5737 5739 5742 5744 5746 5748 5750 5752 5754 5756
5701 5699 5696 5694 5691 5689 5687 5687 5686 5683 5681 5679 5678 5677 5677 5677 5677 5677 5678 5679 5680 5681 5683 5685 5688 5690 5692 5694 5696 5699 5701 5703 5706 5709 5711 5714 5717 5720 5723 5726 5728 5731 5733 5735 5738 5740 5742 5744 5745
5693 5691 5688 5686 5684 5681 5679 5678 5678 5675 5673 5671 5669 5668 5667 5668 5668 5668 5669 5670 5670 5672 5673 5675 5676 5678 5680 5682 5684 5686 5689 5691 5694 5697 5699 5702 5705 5708 5711 5714 5716 5719 5722 5724 5727 5729 5731 5733 5734
5687 5684 5681 5678 5675 5674 5672 5668 5671 5668 5666 5663 5661 5659 5659 5658 5658 5659 5659 5660 5661 5662 5663 5665 5665 5667 5669 5671 5673 5674 5677 5679 5682 5684 5687 5690 5693 5695 5698 5701 5704 5707 5710 5713 5715 5717 5719 5721 5723
5679 5676 5673 5670 5667 5665 5664 5660 5662 5660 5657 5655 5653 5651 5650 5650 5649 5649 5650 5650 5651 5652 5653 5654 5655 5656 5658 5660 5661 5663 5665 5667 5669 5672 5675 5678 5680 5683 5686 5689 5691 5694 5697 5700 5703 5705 5707 5709 5711
5671 5669 5666 5663 5660 5658 5657 5653 5652 5651 5649 5647 5645 5643 5642 5641 5640 5640 5640 5641 5641 5642 5642 5644 5644 5645 5647 5648 5650 5651 5653 5654 5657 5659 5662 5665 5668 5670 5673 5676 5678 5681 5684 5687 5690 5692 5694 5696 5698
5665 5662 5658 5654 5652 5650 5649 5645 5645 5643 5641 5638 5637 5635 5634 5633 5632 5631 5631 5631 5631 5632 5632 5633 5634 5634 5636 5637 5638 5639 5641 5642 5644 5647 5650 5652 5655 5657 5660 5663 5666 5668 5671 5674 5676 5678 5680 5683 5684
5658 5655 5652 5648 5644 5642 5640 5637 5638 5636 5632 5630 5629 5627 5626 5624 5623 5622 5622 5622 5622 5622 5622 5622 5623 5623 5624 5626 5627 5628 5629 5630 5632 5635 5637 5640 5642 5645 5647 5650 5652 5655 5657 5660 5662 5664 5667 5669 5671
5652 5648 5646 5641 5637 5634 5632 5631 5630 5628 5625 5623 5621 5620 5618 5616 5615 5613 5613 5612 5611 5611 5611 5611 5611 5612 5613 5614 5615 5616 5617 5618 5620 5622 5624 5627 5629 5632 5634 5636 5639 5641 5643 5645 5648 5650 5652 5654 5656
5646 5642 5639 5634 5630 5626 5624 5623 5623 5619 5617 5616 5613 5611 5609 5607 5606 5604 5603 5601 5601 5600 5600 5600 5600 5601 5602 5602 5603 5604 5605 5606 5607 5609 5611 5614 5616 5618 5620 5622 5625 5627 5629 5631 5633 5636 5638 5640 5642
5639 5636 5631 5628 5624 5620 5616 5618 5615 5612 5609 5607 5605 5602 5600 5598 5596 5594 5593 5591 5590 5589 5589 5588 5588 5588 5589 5590 5591 5592 5592 5593 5595 5596 5598 5600 5602 5604 5606 5608 5610 5612 5614 5616 5618 5621 5623 5625 5627
5631 5628 5625 5622 5618 5613 5609 5611 5607 5604 5601 5599 5596 5594 5591 5589 5586 5584 5583 5581 5580 5579 5578 5577 5577 5577 5577 5577 5578 5578 5579 5580 5582 5583 5584 5586 5588 5590 5592 5594 5596 5597 5599 5601 5603 5605 5607 5610 5612
Wind_Speed
17 18 18 19 20 21 21 21 21 22 23 23 23 23 23 23 24 24 24 23 23 23 23 23 23 22 21 21 20 19 18 17 17 17 17 16 16 15 15 14 14 14 14 14 13 13 12 11 10
17 18 19 19 21 22 22 22 22 23 24 25 25 25 25 24 25 25 25 25 25 25 25 25 24 24 24 23 22 21 20 19 19 18 18 18 17 17 17 16 16 16 16 16 15 15 14 13 12
19 19 19 21 22 22 23 23 24 25 25 26 26 27 27 26 26 26 26 26 26 26 27 26 26 26 25 25 24 24 23 22 21 20 19 19 19 19 18 17 17 18 18 17 17 16 15 15 14
20 21 21 22 22 22 23 24 25 27 27 28 28 28 28 29 28 28 27 27 27 27 28 28 28 27 27 27 26 26 25 25 23 23 22 20 20 20 19 19 18 19 19 19 18 18 17 16 15
20 21 22 23 22 22 23 24 25 27 28 29 29 29 30 30 30 30 29 29 29 28 28 29 29 29 29 28 27 27 27 26 25 24 24 23 22 22 21 20 20 20 20 19 19 19 18 18 17
20 21 23 22 23 24 24 25 27 28 28 29 31 31 31 31 32 32 32 31 30 30 30 30 30 31 30 30 29 29 29 28 27 26 26 25 24 24 24 23 21 20 20 20 20 20 20 19 18
20 22 22 23 24 25 26 27 28 29 29 30 31 32 32 33 33 34 34 33 33 32 32 32 32 32 32 31 31 30 30 30 29 28 27 26 26 25 25 24 23 22 22 22 22 21 21 20 19
21 22 22 23 24 25 26 27 27 29 31 32 33 33 33 34 34 34 35 35 35 34 34 34 34 33 34 33 32 32 31 31 31 30 30 29 28 27 27 26 25 24 25 24 24 23 22 22 21
22 22 22 22 24 25 26 27 28 30 31 33 34 34 34 35 36 36 36 36 35 36 35 36 35 34 34 34 34 34 33 33 32 32 32 31 30 29 29 28 27 27 27 27 26 24 24 24 23
22 23 22 23 24 24 25 27 27 28 30 33 34 35 35 35 36 37 36 36 37 37 37 37 37 36 36 36 35 35 35 34 34 34 33 33 32 31 30 30 29 29 29 29 29 27 26 26 25
22 22 22 23 24 25 26 27 28 28 29 32 33 34 35 36 36 37 37 37 38 38 38 38 38 38 38 37 36 37 37 36 35 35 34 34 33 32 32 32 31 31 31 31 30 29 28 28 27
22 22 22 23 25 25 26 27 29 29 29 31 32 33 34 36 36 36 37 38 39 39 39 39 38 39 39 38 38 37 37 37 37 36 36 35 34 34 34 33 32 32 32 32 31 30 29 30 29
22 22 23 24 24 25 26 27 28 29 29 30 31 33 34 35 36 36 38 39 39 40 40 40 39 40 40 40 40 39 38 38 38 37 37 36 36 35 35 34 34 34 34 34 33 32 31 31 30
24 24 24 25 26 27 28 28 28 28 29 30 31 32 33 34 35 36 37 38 39 39 40 40 41 41 41 42 41 41 41 40 40 39 39 38 38 37 37 36 35 35 35 35 34 33 33 33 32
25 25 25 26 27 28 29 28 28 28 29 30 30 31 32 33 34 36 37 38 39 39 40 41 42 42 43 43 43 43 42 42 41 40 40 40 40 39 39 38 37 37 37 36 35 35 35 34 34
25 26 26 26 28 28 29 28 27 28 28 29 30 31 31 32 33 35 36 37 38 39 39 41 42 43 43 43 43 44 43 43 43 42 42 42 41 41 40 40 39 39 39 38 38 38 37 36 36
25 26 26 27 28 28 29 28 28 28 28 28 30 31 31 32 33 34 35 36 37 38 39 40 42 42 43 43 44 44 44 44 45 44 43 43 44 43 43 42 41 40 40 40 40 40 39 38 38
27 27 27 27 27 29 29 28 28 28 29 29 30 30 31 32 34 35 35 36 37 38 39 40 42 43 44 44 44 45 46 46 46 46 45 45 45 45 45 44 43 42 42 41 41 42 41 40 40
28 28 28 28 28 29 28 28 27 29 29 29 30 31 32 32 32 34 35 35 36 38 40 40 41 42 44 44 45 45 46 47 48 48 48 47 47 46 46 46 45 44 44 44 44 44 43 42 42
28 28 28 27 28 29 28 28 28 29 30 30 30 31 32 32 33 35 35 36 37 38 39 41 42 43 44 45 45 46 47 48 48 48 49 49 49 48 48 47 47 46 45 45 46 46 45 45 44
27 28 27 27 27 28 29 28 28 29 30 31 30 31 32 33 34 35 36 36 38 38 38 40 41 43 44 45 46 47 48 49 50 50 50 50 50 51 49 48 48 47 47 47 47 47 47 47 46
27 26 26 26 27 28 28 30 27 28 29 30 30 30 32 33 34 34 35 36 37 37 38 39 41 42 43 44 45 46 48 50 51 51 51 51 52 52 52 51 50 49 49 49 49 48 49 49 48
26 27 26 27 27 28 28 30 27 28 28 29 30 30 31 31 32 32 33 35 37 36 37 39 41 42 43 45 46 46 47 49 50 51 52 52 52 53 53 53 52 50 50 50 51 50 51 51 51
26 27 28 28 28 29 28 29 28 28 28 29 30 30 30 30 31 32 32 34 35 36 37 39 40 41 43 43 45 46 47 48 49 50 51 51 51 52 52 53 52 51 51 50 51 52 52 51 52
26 27 28 29 29 30 29 30 29 28 29 29 29 29 29 31 32 33 33 34 35 36 38 39 40 41 42 43 43 45 46 47 49 50 51 51 51 52 53 53 53 52 52 52 52 52 52 52 53
26 26 27 28 30 30 29 30 29 28 29 30 30 30 30 31 33 34 34 35 36 37 38 39 40 41 42 43 43 44 46 47 48 49 50 51 52 52 53 53 53 53 52 53 52 52 54 53 53
26 25 26 28 30 30 30 29 27 27 29 30 30 31 31 31 33 34 34 34 35 37 38 39 40 41 41 42 43 44 46 47 48 49 50 51 51 52 53 54 54 54 54 55 54 53 54 54 54
26 26 27 27 29 30 30 29 28 28 27 28 29 29 30 31 32 34 34 34 35 37 38 40 41 42 43 44 44 44 46 47 48 49 51 51 52 52 54 54 55 55 56 56 57 56 56 55 55
27 26 27 28 29 30 31 29 28 29 29 28 29 30 31 31 32 33 34 35 35 36 37 38 39 40 42 44 45 46 46 47 47 48 50 51 51 52 53 54 55 56 56 57 57 58 58 57 56
28 28 28 29 30 30 32 31 29 29 30 31 31 32 31 32 32 32 33 35 35 35 36 37 38 39 41 42 44 45 46 46 46 47 48 50 51 51 52 53 53 55 56 57 57 58 58 57 57
Wind_Direction
262 259 258 257 255 254 254 253 251 249 246 244 243 243 243 244 243 244 242 240 239 238 237 236 235 235 235 235 235 234 233 234 234 233 233 232 230 231 233 235 236 234 234 233 235 235 235 238 241
266 262 260 259 258 257 257 255 252 249 248 246 245 244 244 244 245 245 243 240 239 239 238 238 237 236 236 235 236 236 235 234 235 235 234 233 233 233 234 237 237 236 235 236 237 236 236 238 241
266 263 262 261 260 259 258 255 252 249 248 248 247 246 245 245 244 244 243 242 241 240 239 238 239 238 237 237 237 238 238 236 237 236 235 234 234 235 236 238 239 237 237 238 239 238 237 239 239
269 266 264 263 262 260 258 256 254 252 250 250 249 248 247 246 245 243 243 243 242 242 241 240 240 240 239 240 239 239 239 239 240 239 237 236 236 237 237 239 239 238 237 238 239 239 238 239 239
272 268 266 265 262 261 259 257 254 254 252 251 251 250 249 247 246 244 243 244 244 243 242 241 241 241 240 241 241 241 241 241 242 242 241 239 239 239 239 241 241 239 238 239 240 240 240 240 242
273 271 268 265 263 261 260 258 255 254 254 253 252 251 251 249 247 245 243 242 243 243 242 242 241 241 241 241 242 242 242 242 243 242 241 241 241 241 241 242 241 240 240 240 241 243 242 243 243
275 273 271 268 264 262 262 260 257 255 254 255 254 253 252 251 249 246 244 243 243 242 242 242 242 242 242 242 242 242 241 241 243 243 243 241 240 241 241 242 243 241 241 241 243 244 243 244 244
278 275 272 270 266 264 263 261 260 257 256 257 257 255 253 252 251 249 246 244 243 243 242 242 242 242 241 241 242 242 242 242 243 244 244 243 242 242 242 243 243 242 241 242 244 243 244 244 244
279 276 274 271 268 266 263 260 260 260 260 258 257 256 254 253 251 249 247 245 244 243 242 242 241 242 242 242 242 243 243 244 244 244 244 244 244 243 243 242 243 243 243 243 244 245 246 245 244
281 278 276 273 271 270 266 262 261 261 261 259 257 256 254 253 252 250 248 246 244 244 243 242 242 242 243 244 244 243 243 244 244 244 244 244 244 245 244 243 244 244 244 244 245 246 249 247 246
283 280 277 275 274 272 268 265 264 265 263 261 258 257 255 254 252 250 248 246 244 243 243 242 243 243 243 244 244 244 244 244 245 245 245 245 245 246 245 245 246 245 245 245 245 247 248 247 246
284 283 280 277 274 272 269 268 266 267 266 263 260 257 256 254 251 250 249 247 245 244 242 242 242 243 243 243 243 244 244 244 245 245 244 245 246 246 246 246 247 245 244 244 245 246 247 247 246
288 286 282 278 275 272 270 271 270 270 268 264 262 259 257 256 252 250 249 248 246 244 242 241 241 243 244 244 243 243 243 244 245 245 244 245 246 247 246 246 247 246 244 244 245 246 247 247 248
290 288 284 278 275 273 273 273 272 270 269 266 263 261 259 256 253 250 249 248 246 244 243 242 242 244 245 245 244 244 243 244 245 245 245 245 246 247 247 247 247 246 245 244 245 246 248 250 249
290 288 285 280 277 276 277 275 274 272 269 266 265 263 260 258 254 251 250 249 247 245 244 243 243 244 244 244 244 245 245 244 245 245 245 245 246 247 247 246 247 246 245 246 246 247 248 249 250
290 289 286 283 280 279 278 276 275 274 270 268 266 264 261 258 254 252 252 250 247 246 245 243 244 244 244 245 245 245 246 245 245 245 246 246 246 246 246 246 248 247 246 247 248 248 248 249 250
291 291 289 285 282 280 278 276 274 274 272 269 268 266 263 259 254 254 254 250 248 247 247 246 245 245 245 245 246 246 247 247 246 245 246 247 246 246 246 246 247 247 247 248 249 249 250 251 252
292 291 288 285 283 281 279 278 276 276 273 270 268 266 263 259 256 256 254 252 249 248 248 247 247 247 247 247 247 248 247 247 246 246 245 246 246 246 246 246 247 247 247 248 250 251 252 252 253
291 290 288 285 282 281 279 278 276 274 274 273 270 267 263 260 259 257 253 251 251 250 250 248 248 248 248 248 248 248 248 247 247 247 246 247 247 247 247 247 248 248 248 248 251 251 252 253 254
292 291 289 286 283 282 281 280 277 275 274 275 272 268 266 262 262 259 256 253 252 252 251 250 250 249 249 249 249 248 248 248 247 248 248 248 247 248 249 249 249 250 249 249 251 252 253 253 254
293 293 291 288 285 283 282 280 280 278 277 276 274 271 267 265 264 262 259 255 255 254 253 252 252 252 250 250 250 249 249 248 248 247 247 248 248 248 248 249 249 250 250 250 251 253 253 254 256
295 295 293 289 287 285 285 284 281 280 278 276 275 273 270 268 267 264 260 255 254 255 254 252 253 252 251 251 251 250 249 248 248 248 248 248 249 250 250 250 251 251 251 251 251 252 255 256 257
297 297 295 291 288 286 286 285 286 284 280 278 276 275 272 270 267 264 260 255 254 255 254 253 254 253 252 252 251 251 250 249 249 248 248 248 249 250 251 252 251 251 251 252 252 253 255 256 257
298 298 296 294 291 288 288 288 288 286 283 280 276 274 272 270 267 262 260 257 256 257 254 253 254 252 252 253 252 251 251 251 250 249 249 249 249 250 251 251 252 252 252 252 252 253 254 255 257
300 300 300 298 294 292 291 289 289 289 285 283 279 277 274 271 268 264 262 260 259 259 257 256 255 253 251 253 253 252 252 251 251 249 249 249 250 251 251 251 252 252 253 253 253 253 254 255 257
305 303 301 300 298 295 293 291 291 290 288 286 282 280 276 272 268 265 265 263 262 261 259 260 257 254 252 253 253 254 252 252 252 251 251 251 251 252 252 252 253 253 254 254 253 253 255 256 257
307 304 302 300 298 296 295 294 293 289 287 286 284 281 277 274 271 268 268 267 265 263 261 261 259 256 254 253 255 255 254 255 254 253 252 251 251 252 253 253 253 253 254 255 255 255 255 256 257
306 305 302 300 300 299 297 296 297 292 290 288 287 285 282 279 275 272 270 270 269 267 265 263 261 259 256 255 256 256 256 256 255 254 253 253 252 253 254 254 253 253 254 254 254 255 255 256 257
303 301 300 299 298 297 297 298 299 294 292 291 290 288 284 282 280 275 272 270 271 269 267 266 263 261 258 257 257 257 257 256 256 256 255 254 253 254 255 255 254 254 254 254 254 255 255 256 256
302 299 297 297 297 296 296 297 298 295 292 290 289 288 286 284 281 279 276 274 272 270 269 267 265 263 261 260 258 257 257 257 257 257 256 255 254 254 255 255 256 255 255 256 255 255 255 256 256